Location: Devore Heights
(34.2372°N, 117.4156°W)
Time: 14:12:29
(UTC+00:00)

Vanguard 1 Rocket - Visible Passes

Search period start: 13 September 2024 00:00
Search period end: 23 September 2024 00:00
Orbit: 649 x 4220 km, 34.3° (Epoch: 12 September)

Date Brightness Start Highest point End Pass type
(mag) Time Alt. Az. Time Alt. Az. Time Alt. Az.
13 Sep 9.8 10:12:52 44° SSE 10:16:05 48° SE 10:36:54 10° ENE visible
13 Sep 10.4 12:30:04 15° WSW 12:45:30 84° SSE 13:12:06 10° E visible
14 Sep 10.4 09:04:48 30° ESE 09:04:48 30° ESE 09:18:37 10° ENE visible
14 Sep 9.8 11:22:00 37° SW 11:30:13 73° SSE 11:54:55 10° ENE visible
15 Sep 11.1 07:56:43 12° E 07:56:43 12° E 07:58:22 10° E visible
15 Sep 9.6 10:13:55 52° S 10:16:13 56° SE 10:37:21 10° ENE visible
15 Sep 10.3 12:31:06 16° WSW 12:46:03 88° S 13:12:38 10° E visible
16 Sep 10.2 09:05:48 35° ESE 09:05:48 35° ESE 09:19:29 10° ENE visible
16 Sep 9.6 11:22:59 39° WSW 11:30:40 79° SSE 11:55:19 10° ENE visible
17 Sep 11.0 07:57:41 14° E 07:57:41 14° E 08:00:45 10° E visible
17 Sep 9.4 10:14:52 61° S 10:16:31 63° SSE 10:37:45 10° ENE visible
17 Sep 10.3 12:32:04 16° W 12:46:41 90° S 13:13:09 10° E visible
18 Sep 10.0 09:06:44 39° ESE 09:06:44 39° ESE 09:20:09 10° ENE visible
18 Sep 9.6 11:23:55 40° WSW 11:31:15 84° SSE 11:55:43 10° E visible
19 Sep 10.9 07:58:35 16° E 07:58:35 16° E 08:02:17 10° E visible
19 Sep 9.2 10:15:46 68° S 10:16:59 71° SSE 10:38:06 10° ENE visible
19 Sep 10.3 12:32:58 16° W 12:47:20 90° N 13:13:39 10° E visible
20 Sep 9.9 09:07:37 43° ESE 09:07:37 43° ESE 09:20:40 10° ENE visible
20 Sep 9.5 11:24:48 40° WSW 11:31:55 88° S 11:56:07 10° E visible
21 Sep 10.8 07:59:28 18° E 07:59:28 18° E 08:03:22 10° E visible
21 Sep 9.1 10:16:40 75° SSW 10:17:34 78° SSE 10:38:27 10° E visible
21 Sep 10.2 12:33:51 15° W 12:47:59 90° S 13:14:06 10° E visible
22 Sep 9.8 09:08:30 45° E 09:08:30 45° E 09:21:06 10° ENE visible
22 Sep 9.5 11:25:41 40° W 11:32:38 90° S 11:56:33 10° E visible
